Location: Unspecified
(48.2082°N, 0.0000°E)
Time: 02:23:50
(UTC+00:00)

Vanguard 1 - Pass Details

Date: 28 June 2019
Orbit: 653 x 3830 km, 34.3° (Epoch: 17 July)

Event Time Altitude Azimuth Distance (km) Brightness Sun altitude
Rises 03:04:26 0° 252° (WSW) 7,795 14.1 -7.8°
Reaches altitude 10° 03:10:26 10° 248° (WSW) 6,504 13.7 -7.1°
Maximum altitude 03:28:08 46° 184° (S) 3,068 12.3 -5.1°
Drops below altitude 10° 03:38:30 10° 115° (ESE) 3,936 13.5 -3.8°
Sets 03:41:10 0° 109° (ESE) 4,596 13.9 -3.5°
